Year,Month,Day,Hour,Minute,Value (Times are PST for temperature in C)
2008,07,25,00,00,14.60
2008,07,25,00,01,14.60
2008,07,25,00,02,14.60
2008,07,25,00,03,14.60
2008,07,25,00,04,14.60
2008,07,25,00,05,14.60
2008,07,25,00,06,14.60
2008,07,25,00,07,14.50
2008,07,25,00,08,14.50
2008,07,25,00,09,14.50
2008,07,25,00,10,14.50
2008,07,25,00,11,14.40
2008,07,25,00,12,14.40
2008,07,25,00,13,14.40
2008,07,25,00,14,14.40
2008,07,25,00,15,14.40
2008,07,25,00,16,14.40
2008,07,25,00,17,14.40
2008,07,25,00,18,14.40
2008,07,25,00,19,14.40
2008,07,25,00,20,14.40
2008,07,25,00,21,14.40
2008,07,25,00,22,14.40
2008,07,25,00,23,14.40
2008,07,25,00,24,14.40
2008,07,25,00,25,14.40
2008,07,25,00,26,14.40
2008,07,25,00,27,14.40
2008,07,25,00,28,14.40
2008,07,25,00,29,14.40
2008,07,25,00,30,14.40
2008,07,25,00,31,14.40
2008,07,25,00,32,14.40
2008,07,25,00,33,14.40
2008,07,25,00,34,14.50
2008,07,25,00,35,14.50
2008,07,25,00,36,14.50
2008,07,25,00,37,14.50
2008,07,25,00,38,14.50
2008,07,25,00,39,14.50
2008,07,25,00,40,14.60
2008,07,25,00,41,14.60
2008,07,25,00,42,14.60
2008,07,25,00,43,14.60
2008,07,25,00,44,14.60
2008,07,25,00,45,14.50
2008,07,25,00,46,14.50
2008,07,25,00,47,14.50
2008,07,25,00,48,14.50
2008,07,25,00,49,14.50
2008,07,25,00,50,14.40
2008,07,25,00,51,14.40
2008,07,25,00,52,14.40
2008,07,25,00,53,14.40
2008,07,25,00,54,14.40
2008,07,25,00,55,14.40
2008,07,25,00,56,14.40
2008,07,25,00,57,14.40
2008,07,25,00,58,14.40
2008,07,25,00,59,14.40
2008,07,25,01,00,14.40
2008,07,25,01,01,14.40
2008,07,25,01,02,14.30
2008,07,25,01,03,14.30
2008,07,25,01,04,14.30
2008,07,25,01,05,14.30
2008,07,25,01,06,14.30
2008,07,25,01,07,14.20
2008,07,25,01,08,14.20
2008,07,25,01,09,14.20
2008,07,25,01,10,14.20
2008,07,25,01,11,14.20
2008,07,25,01,12,14.10
2008,07,25,01,13,14.10
2008,07,25,01,14,14.10
2008,07,25,01,15,14.10
2008,07,25,01,16,14.00
2008,07,25,01,17,14.00
2008,07,25,01,18,14.00
2008,07,25,01,19,14.00
2008,07,25,01,20,13.90
2008,07,25,01,21,13.90
2008,07,25,01,22,13.90
2008,07,25,01,23,13.80
2008,07,25,01,24,13.80
2008,07,25,01,25,13.80
2008,07,25,01,26,13.80
2008,07,25,01,27,13.80
2008,07,25,01,28,13.70
2008,07,25,01,29,13.70
2008,07,25,01,30,13.70
2008,07,25,01,31,13.70
2008,07,25,01,32,13.60
2008,07,25,01,33,13.60
2008,07,25,01,34,13.60
2008,07,25,01,35,13.60
2008,07,25,01,36,13.60
2008,07,25,01,37,13.60
2008,07,25,01,38,13.50
2008,07,25,01,39,13.50
2008,07,25,01,40,13.50
2008,07,25,01,41,13.50
2008,07,25,01,42,13.40
2008,07,25,01,43,13.40
2008,07,25,01,44,13.40
2008,07,25,01,45,13.30
2008,07,25,01,46,13.30
2008,07,25,01,47,13.30
2008,07,25,01,48,13.30
2008,07,25,01,49,13.30
2008,07,25,01,50,13.20
2008,07,25,01,51,13.20
2008,07,25,01,52,13.20
2008,07,25,01,53,13.20
2008,07,25,01,54,13.20
2008,07,25,01,55,13.20
2008,07,25,01,56,13.20
2008,07,25,01,57,13.20
2008,07,25,01,58,13.20
2008,07,25,01,59,13.20
2008,07,25,02,00,13.20
2008,07,25,02,01,13.10
2008,07,25,02,02,13.10
2008,07,25,02,03,13.10
2008,07,25,02,04,13.10
2008,07,25,02,05,13.10
2008,07,25,02,06,13.10
2008,07,25,02,07,13.10
2008,07,25,02,08,13.10
2008,07,25,02,09,13.10
2008,07,25,02,10,13.00
2008,07,25,02,11,13.00
2008,07,25,02,12,13.00
2008,07,25,02,13,13.00
2008,07,25,02,14,13.00
2008,07,25,02,15,12.90
2008,07,25,02,16,12.90
2008,07,25,02,17,12.90
2008,07,25,02,18,12.90
2008,07,25,02,19,12.90
2008,07,25,02,20,12.90
2008,07,25,02,21,12.90
2008,07,25,02,22,12.80
2008,07,25,02,23,12.80
2008,07,25,02,24,12.80
2008,07,25,02,25,12.80
2008,07,25,02,26,12.80
2008,07,25,02,27,12.80
2008,07,25,02,28,12.80
2008,07,25,02,29,12.80
2008,07,25,02,30,12.80
2008,07,25,02,31,12.80
2008,07,25,02,32,12.70
2008,07,25,02,33,12.70
2008,07,25,02,34,12.70
2008,07,25,02,35,12.70
2008,07,25,02,36,12.70
2008,07,25,02,37,12.60
2008,07,25,02,38,12.60
2008,07,25,02,39,12.60
2008,07,25,02,40,12.60
2008,07,25,02,41,12.60
2008,07,25,02,42,12.50
2008,07,25,02,43,12.50
2008,07,25,02,44,12.50
2008,07,25,02,45,12.40
2008,07,25,02,46,12.40
2008,07,25,02,47,12.40
2008,07,25,02,48,12.40
2008,07,25,02,49,12.40
2008,07,25,02,50,12.40
2008,07,25,02,51,12.40
2008,07,25,02,52,12.40
2008,07,25,02,53,12.40
2008,07,25,02,54,12.40
2008,07,25,02,55,12.40
2008,07,25,02,56,12.40
2008,07,25,02,57,12.40
2008,07,25,02,58,12.40
2008,07,25,02,59,12.40
2008,07,25,03,00,12.40
2008,07,25,03,01,12.40
2008,07,25,03,02,12.40
2008,07,25,03,03,12.40
2008,07,25,03,04,12.30
2008,07,25,03,05,12.30
2008,07,25,03,06,12.30
2008,07,25,03,07,12.30
2008,07,25,03,08,12.30
2008,07,25,03,09,12.30
2008,07,25,03,10,12.30
2008,07,25,03,11,12.30
2008,07,25,03,12,12.30
2008,07,25,03,13,12.30
2008,07,25,03,14,12.30
2008,07,25,03,15,12.30
2008,07,25,03,16,12.30
2008,07,25,03,17,12.30
2008,07,25,03,18,12.30
2008,07,25,03,19,12.30
2008,07,25,03,20,12.30
2008,07,25,03,21,12.30
2008,07,25,03,22,12.30
2008,07,25,03,23,12.30
2008,07,25,03,24,12.30
2008,07,25,03,25,12.30
2008,07,25,03,26,12.30
2008,07,25,03,27,12.30
2008,07,25,03,28,12.30
2008,07,25,03,29,12.30
2008,07,25,03,30,12.30
2008,07,25,03,31,12.30
2008,07,25,03,32,12.30
2008,07,25,03,33,12.30
2008,07,25,03,34,12.30
2008,07,25,03,35,12.30
2008,07,25,03,36,12.30
2008,07,25,03,37,12.20
2008,07,25,03,38,12.20
2008,07,25,03,39,12.20
2008,07,25,03,40,12.20
2008,07,25,03,41,12.20
2008,07,25,03,42,12.20
2008,07,25,03,43,12.20
2008,07,25,03,44,12.20
2008,07,25,03,45,12.20
2008,07,25,03,46,12.20
2008,07,25,03,47,12.20
2008,07,25,03,48,12.20
2008,07,25,03,49,12.10
2008,07,25,03,50,12.10
2008,07,25,03,51,12.10
2008,07,25,03,52,12.10
2008,07,25,03,53,12.10
2008,07,25,03,54,12.10
2008,07,25,03,55,12.10
2008,07,25,03,56,12.00
2008,07,25,03,57,12.00
2008,07,25,03,58,12.00
2008,07,25,03,59,11.90
2008,07,25,04,00,11.90
2008,07,25,04,01,11.90
2008,07,25,04,02,11.90
2008,07,25,04,03,11.90
2008,07,25,04,04,11.90
2008,07,25,04,05,11.80
2008,07,25,04,06,11.80
2008,07,25,04,07,11.80
2008,07,25,04,08,11.80
2008,07,25,04,09,11.80
2008,07,25,04,10,11.80
2008,07,25,04,11,11.80
2008,07,25,04,12,11.80
2008,07,25,04,13,11.70
2008,07,25,04,14,11.70
2008,07,25,04,15,11.70
2008,07,25,04,16,11.70
2008,07,25,04,17,11.70
2008,07,25,04,18,11.70
2008,07,25,04,19,11.60
2008,07,25,04,20,11.60
2008,07,25,04,21,11.60
2008,07,25,04,22,11.60
2008,07,25,04,23,11.60
2008,07,25,04,24,11.60
2008,07,25,04,25,11.60
2008,07,25,04,26,11.50
2008,07,25,04,27,11.50
2008,07,25,04,28,11.50
2008,07,25,04,29,11.50
2008,07,25,04,30,11.50
2008,07,25,04,31,11.40
2008,07,25,04,32,11.40
2008,07,25,04,33,11.40
2008,07,25,04,34,11.40
2008,07,25,04,35,11.40
2008,07,25,04,36,11.40
2008,07,25,04,37,11.40
2008,07,25,04,38,11.40
2008,07,25,04,39,11.40
2008,07,25,04,40,11.30
2008,07,25,04,41,11.30
2008,07,25,04,42,11.30
2008,07,25,04,43,11.30
2008,07,25,04,44,11.30
2008,07,25,04,45,11.30
2008,07,25,04,46,11.30
2008,07,25,04,47,11.30
2008,07,25,04,48,11.30
2008,07,25,04,49,11.30
2008,07,25,04,50,11.30
2008,07,25,04,51,11.30
2008,07,25,04,52,11.20
2008,07,25,04,53,11.20
2008,07,25,04,54,11.20
2008,07,25,04,55,11.20
2008,07,25,04,56,11.20
2008,07,25,04,57,11.20
2008,07,25,04,58,11.20
2008,07,25,04,59,11.20
2008,07,25,05,00,11.20
2008,07,25,05,01,11.10
2008,07,25,05,02,11.10
2008,07,25,05,03,11.10
2008,07,25,05,04,11.10
2008,07,25,05,05,11.10
2008,07,25,05,06,11.00
2008,07,25,05,07,11.00
2008,07,25,05,08,11.00
2008,07,25,05,09,11.00
2008,07,25,05,10,11.00
2008,07,25,05,11,10.90
2008,07,25,05,12,10.90
2008,07,25,05,13,10.90
2008,07,25,05,14,10.90
2008,07,25,05,15,10.90
2008,07,25,05,16,10.90
2008,07,25,05,17,10.90
2008,07,25,05,18,10.90
2008,07,25,05,19,10.90
2008,07,25,05,20,10.90
2008,07,25,05,21,11.00
2008,07,25,05,22,10.90
2008,07,25,05,23,10.90
2008,07,25,05,24,10.90
2008,07,25,05,25,10.90
2008,07,25,05,26,10.90
2008,07,25,05,27,10.90
2008,07,25,05,28,10.80
2008,07,25,05,29,10.80
2008,07,25,05,30,10.80
2008,07,25,05,31,10.80
2008,07,25,05,32,10.80
2008,07,25,05,33,10.80
2008,07,25,05,34,10.80
2008,07,25,05,35,10.80
2008,07,25,05,36,10.80
2008,07,25,05,37,10.80
2008,07,25,05,38,10.80
2008,07,25,05,39,10.80
2008,07,25,05,40,10.70
2008,07,25,05,41,10.70
2008,07,25,05,42,10.70
2008,07,25,05,43,10.70
2008,07,25,05,44,10.70
2008,07,25,05,45,10.70
2008,07,25,05,46,10.70
2008,07,25,05,47,10.70
2008,07,25,05,48,10.70
2008,07,25,05,49,10.60
2008,07,25,05,50,10.60
2008,07,25,05,51,10.60
2008,07,25,05,52,10.60
2008,07,25,05,53,10.70
2008,07,25,05,54,10.70
2008,07,25,05,55,10.70
2008,07,25,05,56,10.70
2008,07,25,05,57,10.70
2008,07,25,05,58,10.70
2008,07,25,05,59,10.80
2008,07,25,06,00,10.80
2008,07,25,06,01,10.80
2008,07,25,06,02,10.80
2008,07,25,06,03,10.80
2008,07,25,06,04,10.80
2008,07,25,06,05,10.80
2008,07,25,06,06,10.80
2008,07,25,06,07,10.80
2008,07,25,06,08,10.80
2008,07,25,06,09,10.80
2008,07,25,06,10,10.90
2008,07,25,06,11,10.90
2008,07,25,06,12,10.90
2008,07,25,06,13,10.90
2008,07,25,06,14,10.90
2008,07,25,06,15,10.90
2008,07,25,06,16,10.90
2008,07,25,06,17,10.90
2008,07,25,06,18,10.90
2008,07,25,06,19,10.90
2008,07,25,06,20,10.90
2008,07,25,06,21,10.90
2008,07,25,06,22,10.90
2008,07,25,06,23,10.90
2008,07,25,06,24,10.90
2008,07,25,06,25,10.90
2008,07,25,06,26,10.90
2008,07,25,06,27,11.00
2008,07,25,06,28,11.00
2008,07,25,06,29,11.00
2008,07,25,06,30,11.10
2008,07,25,06,31,11.10
2008,07,25,06,32,11.10
2008,07,25,06,33,11.10
2008,07,25,06,34,11.10
2008,07,25,06,35,11.10
2008,07,25,06,36,11.10
2008,07,25,06,37,11.10
2008,07,25,06,38,11.20
2008,07,25,06,39,11.20
2008,07,25,06,40,11.20
2008,07,25,06,41,11.20
2008,07,25,06,42,11.20
2008,07,25,06,43,11.20
2008,07,25,06,44,11.20
2008,07,25,06,45,11.20
2008,07,25,06,46,11.20
2008,07,25,06,47,11.30
2008,07,25,06,48,11.30
2008,07,25,06,49,11.30
2008,07,25,06,50,11.30
2008,07,25,06,51,11.30
2008,07,25,06,52,11.40
2008,07,25,06,53,11.40
2008,07,25,06,54,11.50
2008,07,25,06,55,11.50
2008,07,25,06,56,11.60
2008,07,25,06,57,11.60
2008,07,25,06,58,11.60
2008,07,25,06,59,11.70
2008,07,25,07,00,11.80
2008,07,25,07,01,11.80
2008,07,25,07,02,11.90
2008,07,25,07,03,11.90
2008,07,25,07,04,11.90
2008,07,25,07,05,12.00
2008,07,25,07,06,12.10
2008,07,25,07,07,12.10
2008,07,25,07,08,12.10
2008,07,25,07,09,12.20
2008,07,25,07,10,12.20
2008,07,25,07,11,12.20
2008,07,25,07,12,12.20
2008,07,25,07,13,12.20
2008,07,25,07,14,12.20
2008,07,25,07,15,12.20
2008,07,25,07,16,12.30
2008,07,25,07,17,12.30
2008,07,25,07,18,12.30
2008,07,25,07,19,12.30
2008,07,25,07,20,12.30
2008,07,25,07,21,12.30
2008,07,25,07,22,12.40
2008,07,25,07,23,12.40
2008,07,25,07,24,12.40
2008,07,25,07,25,12.40
2008,07,25,07,26,12.50
2008,07,25,07,27,12.50
2008,07,25,07,28,12.50
2008,07,25,07,29,12.60
2008,07,25,07,30,12.60
2008,07,25,07,31,12.60
2008,07,25,07,32,12.60
2008,07,25,07,33,12.70
2008,07,25,07,34,12.70
2008,07,25,07,35,12.70
2008,07,25,07,36,12.70
2008,07,25,07,37,12.80
2008,07,25,07,38,12.80
2008,07,25,07,39,12.80
2008,07,25,07,40,12.80
2008,07,25,07,41,12.90
2008,07,25,07,42,12.90
2008,07,25,07,43,13.00
2008,07,25,07,44,13.10
2008,07,25,07,45,13.20
2008,07,25,07,46,13.30
2008,07,25,07,47,13.40
2008,07,25,07,48,13.50
2008,07,25,07,49,13.60
2008,07,25,07,50,13.70
2008,07,25,07,51,13.70
2008,07,25,07,52,13.80
2008,07,25,07,53,13.90
2008,07,25,07,54,14.00
2008,07,25,07,55,14.10
2008,07,25,07,56,14.20
2008,07,25,07,57,14.20
2008,07,25,07,58,14.30
2008,07,25,07,59,14.30
2008,07,25,08,00,14.40
2008,07,25,08,01,14.50
2008,07,25,08,02,14.50
2008,07,25,08,03,14.60
2008,07,25,08,04,14.70
2008,07,25,08,05,14.80
2008,07,25,08,06,14.80
2008,07,25,08,07,14.90
2008,07,25,08,08,15.00
2008,07,25,08,09,15.00
2008,07,25,08,10,15.00
2008,07,25,08,11,15.00
2008,07,25,08,12,15.00
2008,07,25,08,13,15.10
2008,07,25,08,14,15.20
2008,07,25,08,15,15.20
2008,07,25,08,16,15.30
2008,07,25,08,17,15.30
2008,07,25,08,18,15.30
2008,07,25,08,19,15.40
2008,07,25,08,20,15.50
2008,07,25,08,21,15.60
2008,07,25,08,22,15.60
2008,07,25,08,23,15.70
2008,07,25,08,24,15.80
2008,07,25,08,25,15.80
2008,07,25,08,26,15.90
2008,07,25,08,27,15.90
2008,07,25,08,28,16.00
2008,07,25,08,29,16.10
2008,07,25,08,30,16.10
2008,07,25,08,31,16.20
2008,07,25,08,32,16.20
2008,07,25,08,33,16.30
2008,07,25,08,34,16.30
2008,07,25,08,35,16.30
2008,07,25,08,36,16.40
2008,07,25,08,37,16.40
2008,07,25,08,38,16.40
2008,07,25,08,39,16.40
2008,07,25,08,40,16.50
2008,07,25,08,41,16.50
2008,07,25,08,42,16.50
2008,07,25,08,43,16.60
2008,07,25,08,44,16.60
2008,07,25,08,45,16.60
2008,07,25,08,46,16.60
2008,07,25,08,47,16.70
2008,07,25,08,48,16.70
2008,07,25,08,49,16.70
2008,07,25,08,50,16.70
2008,07,25,08,51,16.80
2008,07,25,08,52,16.80
2008,07,25,08,53,16.80
2008,07,25,08,54,16.90
2008,07,25,08,55,16.90
2008,07,25,08,56,16.90
2008,07,25,08,57,17.00
2008,07,25,08,58,17.10
2008,07,25,08,59,17.20
2008,07,25,09,00,17.30
2008,07,25,09,01,17.40
2008,07,25,09,02,17.40
2008,07,25,09,03,17.50
2008,07,25,09,04,17.60
2008,07,25,09,05,17.70
2008,07,25,09,06,17.70
2008,07,25,09,07,17.80
2008,07,25,09,08,17.90
2008,07,25,09,09,18.00
2008,07,25,09,10,18.10
2008,07,25,09,11,18.10
2008,07,25,09,12,18.20
2008,07,25,09,13,18.30
2008,07,25,09,14,18.30
2008,07,25,09,15,18.40
2008,07,25,09,16,18.50
2008,07,25,09,17,18.60
2008,07,25,09,18,18.60
2008,07,25,09,19,18.60
2008,07,25,09,20,18.60
2008,07,25,09,21,18.60
2008,07,25,09,22,18.60
2008,07,25,09,23,18.50
2008,07,25,09,24,18.50
2008,07,25,09,25,18.40
2008,07,25,09,26,18.40
2008,07,25,09,27,18.30
2008,07,25,09,28,18.30
2008,07,25,09,29,18.20
2008,07,25,09,30,18.20
2008,07,25,09,31,18.20
2008,07,25,09,32,18.20
2008,07,25,09,33,18.30
2008,07,25,09,34,18.30
2008,07,25,09,35,18.30
2008,07,25,09,36,18.40
2008,07,25,09,37,18.40
2008,07,25,09,38,18.50
2008,07,25,09,39,18.60
2008,07,25,09,40,18.60
2008,07,25,09,41,18.60
2008,07,25,09,42,18.60
2008,07,25,09,43,18.60
2008,07,25,09,44,18.60
2008,07,25,09,45,18.60
2008,07,25,09,46,18.60
2008,07,25,09,47,18.60
2008,07,25,09,48,18.70
2008,07,25,09,49,18.80
2008,07,25,09,50,18.80
2008,07,25,09,51,18.90
2008,07,25,09,52,19.00
2008,07,25,09,53,19.00
2008,07,25,09,54,18.90
2008,07,25,09,55,18.90
2008,07,25,09,56,19.00
2008,07,25,09,57,19.00
2008,07,25,09,58,19.00
2008,07,25,09,59,19.00
2008,07,25,10,00,19.10
2008,07,25,10,01,19.10
2008,07,25,10,02,19.10
2008,07,25,10,03,19.10
2008,07,25,10,04,19.10
2008,07,25,10,05,19.20
2008,07,25,10,06,19.20
2008,07,25,10,07,19.30
2008,07,25,10,08,19.40
2008,07,25,10,09,19.60
2008,07,25,10,10,19.70
2008,07,25,10,11,19.70
2008,07,25,10,12,19.70
2008,07,25,10,13,19.90
2008,07,25,10,14,20.00
2008,07,25,10,15,20.00
2008,07,25,10,16,20.10
2008,07,25,10,17,20.10
2008,07,25,10,18,20.20
2008,07,25,10,19,20.20
2008,07,25,10,20,20.20
2008,07,25,10,21,20.30
2008,07,25,10,22,20.30
2008,07,25,10,23,20.30
2008,07,25,10,24,20.30
2008,07,25,10,25,20.40
2008,07,25,10,26,20.40
2008,07,25,10,27,20.50
2008,07,25,10,28,20.60
2008,07,25,10,29,20.60
2008,07,25,10,30,20.60
2008,07,25,10,31,20.60
2008,07,25,10,32,20.50
2008,07,25,10,33,20.50
2008,07,25,10,34,20.50
2008,07,25,10,35,20.50
2008,07,25,10,36,20.50
2008,07,25,10,37,20.40
2008,07,25,10,38,20.40
2008,07,25,10,39,20.30
2008,07,25,10,40,20.20
2008,07,25,10,41,20.20
2008,07,25,10,42,20.20
2008,07,25,10,43,20.20
2008,07,25,10,44,20.30
2008,07,25,10,45,20.40
2008,07,25,10,46,20.40
2008,07,25,10,47,20.50
2008,07,25,10,48,20.50
2008,07,25,10,49,20.40
2008,07,25,10,50,20.40
2008,07,25,10,51,20.40
2008,07,25,10,52,20.40
2008,07,25,10,53,20.40
2008,07,25,10,54,20.40
2008,07,25,10,55,20.30
2008,07,25,10,56,20.30
2008,07,25,10,57,20.30
2008,07,25,10,58,20.40
2008,07,25,10,59,20.40
2008,07,25,11,00,20.50
2008,07,25,11,01,20.50
2008,07,25,11,02,20.60
2008,07,25,11,03,20.60
2008,07,25,11,04,20.50
2008,07,25,11,05,20.50
2008,07,25,11,06,20.40
2008,07,25,11,07,20.40
2008,07,25,11,08,20.40
2008,07,25,11,09,20.40
2008,07,25,11,10,20.50
2008,07,25,11,11,20.50
2008,07,25,11,12,20.50
2008,07,25,11,13,20.60
2008,07,25,11,14,20.60
2008,07,25,11,15,20.60
2008,07,25,11,16,20.60
2008,07,25,11,17,20.60
2008,07,25,11,18,20.50
2008,07,25,11,19,20.50
2008,07,25,11,20,20.40
2008,07,25,11,21,20.40
2008,07,25,11,22,20.30
2008,07,25,11,23,20.30
2008,07,25,11,24,20.30
2008,07,25,11,25,20.20
2008,07,25,11,26,20.20
2008,07,25,11,27,20.30
2008,07,25,11,28,20.30
2008,07,25,11,29,20.30
2008,07,25,11,30,20.30
2008,07,25,11,31,20.30
2008,07,25,11,32,20.50
2008,07,25,11,33,20.50
2008,07,25,11,34,20.50
2008,07,25,11,35,20.60
2008,07,25,11,36,20.60
2008,07,25,11,37,20.60
2008,07,25,11,38,20.60
2008,07,25,11,39,20.60
2008,07,25,11,40,20.60
2008,07,25,11,41,20.60
2008,07,25,11,42,20.60
2008,07,25,11,43,20.60
2008,07,25,11,44,20.60
2008,07,25,11,45,20.60
2008,07,25,11,46,20.60
2008,07,25,11,47,20.60
2008,07,25,11,48,20.60
2008,07,25,11,49,20.60
2008,07,25,11,50,20.60
2008,07,25,11,51,20.60
2008,07,25,11,52,20.60
2008,07,25,11,53,20.70
2008,07,25,11,54,20.70
2008,07,25,11,55,20.80
2008,07,25,11,56,20.80
2008,07,25,11,57,20.90
2008,07,25,11,58,20.90
2008,07,25,11,59,21.00
2008,07,25,12,00,21.10
2008,07,25,12,01,21.20
2008,07,25,12,02,21.20
2008,07,25,12,03,21.20
2008,07,25,12,04,21.20
2008,07,25,12,05,21.30
2008,07,25,12,06,21.30
2008,07,25,12,07,21.40
2008,07,25,12,08,21.50
2008,07,25,12,09,21.50
2008,07,25,12,10,21.50
2008,07,25,12,11,21.50
2008,07,25,12,12,21.50
2008,07,25,12,13,21.60
2008,07,25,12,14,21.60
2008,07,25,12,15,21.70
2008,07,25,12,16,21.70
2008,07,25,12,17,21.70
2008,07,25,12,18,21.70
2008,07,25,12,19,21.80
2008,07,25,12,20,21.70
2008,07,25,12,21,21.70
2008,07,25,12,22,21.60
2008,07,25,12,23,21.60
2008,07,25,12,24,21.60
2008,07,25,12,25,21.60
2008,07,25,12,26,21.60
2008,07,25,12,27,21.60
2008,07,25,12,28,21.60
2008,07,25,12,29,21.70
2008,07,25,12,30,21.70
2008,07,25,12,31,21.70
2008,07,25,12,32,21.80
2008,07,25,12,33,21.90
2008,07,25,12,34,22.00
2008,07,25,12,35,22.10
2008,07,25,12,36,22.20
2008,07,25,12,37,22.20
2008,07,25,12,38,22.20
2008,07,25,12,39,22.20
2008,07,25,12,40,22.20
2008,07,25,12,41,22.20
2008,07,25,12,42,22.30
2008,07,25,12,43,22.30
2008,07,25,12,44,22.40
2008,07,25,12,45,22.50
2008,07,25,12,46,22.60
2008,07,25,12,47,22.70
2008,07,25,12,48,22.80
2008,07,25,12,49,22.80
2008,07,25,12,50,22.90
2008,07,25,12,51,22.90
2008,07,25,12,52,22.90
2008,07,25,12,53,22.90
2008,07,25,12,54,22.90
2008,07,25,12,55,22.90
2008,07,25,12,56,22.80
2008,07,25,12,57,22.80
2008,07,25,12,58,22.90
2008,07,25,12,59,22.90
2008,07,25,13,00,23.00
2008,07,25,13,01,23.00
2008,07,25,13,02,23.10
2008,07,25,13,03,23.10
2008,07,25,13,04,23.20
2008,07,25,13,05,23.30
2008,07,25,13,06,23.50
2008,07,25,13,07,23.60
2008,07,25,13,08,23.70
2008,07,25,13,09,23.70
2008,07,25,13,10,23.80
2008,07,25,13,11,23.80
2008,07,25,13,12,23.80
2008,07,25,13,13,23.80
2008,07,25,13,14,23.80
2008,07,25,13,15,23.90
2008,07,25,13,16,24.00
2008,07,25,13,17,24.10
2008,07,25,13,18,24.10
2008,07,25,13,19,24.10
2008,07,25,13,20,24.10
2008,07,25,13,21,24.00
2008,07,25,13,22,23.90
2008,07,25,13,23,24.00
2008,07,25,13,24,23.90
2008,07,25,13,25,23.90
2008,07,25,13,26,23.70
2008,07,25,13,27,23.60
2008,07,25,13,28,23.50
2008,07,25,13,29,23.50
2008,07,25,13,30,23.40
2008,07,25,13,31,23.30
2008,07,25,13,32,23.30
2008,07,25,13,33,23.30
2008,07,25,13,34,23.30
2008,07,25,13,35,23.40
2008,07,25,13,36,23.40
2008,07,25,13,37,23.50
2008,07,25,13,38,23.50
2008,07,25,13,39,23.50
2008,07,25,13,40,23.50
2008,07,25,13,41,23.60
2008,07,25,13,42,23.60
2008,07,25,13,43,23.60
2008,07,25,13,44,23.60
2008,07,25,13,45,23.70
2008,07,25,13,46,23.80
2008,07,25,13,47,23.90
2008,07,25,13,48,24.10
2008,07,25,13,49,24.30
2008,07,25,13,50,24.50
2008,07,25,13,51,24.70
2008,07,25,13,52,24.80
2008,07,25,13,53,24.90
2008,07,25,13,54,25.00
2008,07,25,13,55,25.10
2008,07,25,13,56,25.20
2008,07,25,13,57,25.20
2008,07,25,13,58,25.30
2008,07,25,13,59,25.30
2008,07,25,14,00,25.30
2008,07,25,14,01,25.30
2008,07,25,14,02,25.40
2008,07,25,14,03,25.50
2008,07,25,14,04,25.60
2008,07,25,14,05,25.60
2008,07,25,14,06,25.80
2008,07,25,14,07,25.90
2008,07,25,14,08,25.90
2008,07,25,14,09,25.90
2008,07,25,14,10,25.90
2008,07,25,14,11,25.90
2008,07,25,14,12,25.90
2008,07,25,14,13,25.90
2008,07,25,14,14,25.80
2008,07,25,14,15,25.70
2008,07,25,14,16,25.50
2008,07,25,14,17,25.30
2008,07,25,14,18,25.10
2008,07,25,14,19,25.00
2008,07,25,14,20,24.90
2008,07,25,14,21,24.90
2008,07,25,14,22,24.90
2008,07,25,14,23,24.90
2008,07,25,14,24,24.80
2008,07,25,14,25,24.70
2008,07,25,14,26,24.70
2008,07,25,14,27,24.50
2008,07,25,14,28,24.50
2008,07,25,14,29,24.40
2008,07,25,14,30,24.30
2008,07,25,14,31,24.20
2008,07,25,14,32,24.10
2008,07,25,14,33,24.10
2008,07,25,14,34,24.10
2008,07,25,14,35,24.10
2008,07,25,14,36,24.20
2008,07,25,14,37,24.20
2008,07,25,14,38,24.20
2008,07,25,14,39,24.10
2008,07,25,14,40,24.10
2008,07,25,14,41,24.10
2008,07,25,14,42,24.00
2008,07,25,14,43,24.00
2008,07,25,14,44,24.00
2008,07,25,14,45,24.00
2008,07,25,14,46,24.00
2008,07,25,14,47,24.00
2008,07,25,14,48,24.10
2008,07,25,14,49,24.10
2008,07,25,14,50,23.90
2008,07,25,14,51,23.80
2008,07,25,14,52,23.70
2008,07,25,14,53,23.60
2008,07,25,14,54,23.40
2008,07,25,14,55,23.30
2008,07,25,14,56,23.20
2008,07,25,14,57,23.00
2008,07,25,14,58,22.90
2008,07,25,14,59,22.80
2008,07,25,15,00,22.80
2008,07,25,15,01,22.70
2008,07,25,15,02,22.60
2008,07,25,15,03,22.50
2008,07,25,15,04,22.40
2008,07,25,15,05,22.30
2008,07,25,15,06,22.10
2008,07,25,15,07,22.00
2008,07,25,15,08,21.90
2008,07,25,15,09,21.80
2008,07,25,15,10,21.80
2008,07,25,15,11,21.80
2008,07,25,15,12,21.80
2008,07,25,15,13,21.80
2008,07,25,15,14,21.80
2008,07,25,15,15,21.80
2008,07,25,15,16,21.80
2008,07,25,15,17,21.80
2008,07,25,15,18,21.90
2008,07,25,15,19,21.90
2008,07,25,15,20,21.90
2008,07,25,15,21,21.80
2008,07,25,15,22,21.80
2008,07,25,15,23,21.70
2008,07,25,15,24,21.70
2008,07,25,15,25,21.70
2008,07,25,15,26,21.70
2008,07,25,15,27,21.70
2008,07,25,15,28,21.70
2008,07,25,15,29,21.70
2008,07,25,15,30,21.70
2008,07,25,15,31,21.70
2008,07,25,15,32,21.70
2008,07,25,15,33,21.70
2008,07,25,15,34,21.60
2008,07,25,15,35,21.60
2008,07,25,15,36,21.50
2008,07,25,15,37,21.40
2008,07,25,15,38,21.40
2008,07,25,15,39,21.40
2008,07,25,15,40,21.40
2008,07,25,15,41,21.50
2008,07,25,15,42,21.60
2008,07,25,15,43,21.70
2008,07,25,15,44,21.80
2008,07,25,15,45,22.00
2008,07,25,15,46,22.10
2008,07,25,15,47,22.30
2008,07,25,15,48,22.40
2008,07,25,15,49,22.60
2008,07,25,15,50,22.80
2008,07,25,15,51,23.00
2008,07,25,15,52,23.10
2008,07,25,15,53,23.20
2008,07,25,15,54,23.30
2008,07,25,15,55,23.40
2008,07,25,15,56,23.50
2008,07,25,15,57,23.60
2008,07,25,15,58,23.60
2008,07,25,15,59,23.50
2008,07,25,16,00,23.40
2008,07,25,16,01,23.30
2008,07,25,16,02,23.30
2008,07,25,16,03,23.30
2008,07,25,16,04,23.40
2008,07,25,16,05,23.50
2008,07,25,16,06,23.60
2008,07,25,16,07,23.60
2008,07,25,16,08,23.60
2008,07,25,16,09,23.70
2008,07,25,16,10,23.70
2008,07,25,16,11,23.80
2008,07,25,16,12,23.80
2008,07,25,16,13,23.80
2008,07,25,16,14,23.80
2008,07,25,16,15,23.80
2008,07,25,16,16,23.70
2008,07,25,16,17,23.70
2008,07,25,16,18,23.70
2008,07,25,16,19,23.70
2008,07,25,16,20,23.60
2008,07,25,16,21,23.50
2008,07,25,16,22,23.50
2008,07,25,16,23,23.50
2008,07,25,16,24,23.60
2008,07,25,16,25,23.60
2008,07,25,16,26,23.80
2008,07,25,16,27,23.80
2008,07,25,16,28,23.90
2008,07,25,16,29,24.00
2008,07,25,16,30,24.10
2008,07,25,16,31,24.20
2008,07,25,16,32,24.20
2008,07,25,16,33,24.20
2008,07,25,16,34,24.20
2008,07,25,16,35,24.10
2008,07,25,16,36,24.10
2008,07,25,16,37,23.90
2008,07,25,16,38,23.90
2008,07,25,16,39,23.90
2008,07,25,16,40,24.00
2008,07,25,16,41,24.00
2008,07,25,16,42,24.00
2008,07,25,16,43,23.90
2008,07,25,16,44,23.90
2008,07,25,16,45,23.90
2008,07,25,16,46,23.90
2008,07,25,16,47,23.90
2008,07,25,16,48,24.10
2008,07,25,16,49,24.10
2008,07,25,16,50,24.00
2008,07,25,16,51,24.00
2008,07,25,16,52,24.00
2008,07,25,16,53,24.00
2008,07,25,16,54,24.00
2008,07,25,16,55,24.10
2008,07,25,16,56,24.10
2008,07,25,16,57,24.10
2008,07,25,16,58,24.10
2008,07,25,16,59,24.10
2008,07,25,17,00,24.10
2008,07,25,17,01,24.10
2008,07,25,17,02,24.10
2008,07,25,17,03,24.10
2008,07,25,17,04,24.20
2008,07,25,17,05,24.20
2008,07,25,17,06,24.20
2008,07,25,17,07,24.20
2008,07,25,17,08,24.20
2008,07,25,17,09,24.10
2008,07,25,17,10,24.00
2008,07,25,17,11,24.00
2008,07,25,17,12,24.00
2008,07,25,17,13,23.90
2008,07,25,17,14,23.90
2008,07,25,17,15,23.90
2008,07,25,17,16,23.90
2008,07,25,17,17,23.80
2008,07,25,17,18,23.80
2008,07,25,17,19,23.70